Year,Month,Day,Hour,Minute,Value (Times are PST for temperature in C)
2017,07,16,00,00,15.10
2017,07,16,00,01,15.10
2017,07,16,00,02,15.00
2017,07,16,00,03,15.00
2017,07,16,00,04,15.00
2017,07,16,00,05,15.00
2017,07,16,00,06,15.00
2017,07,16,00,07,15.00
2017,07,16,00,08,15.00
2017,07,16,00,09,15.00
2017,07,16,00,10,15.00
2017,07,16,00,11,14.90
2017,07,16,00,12,14.90
2017,07,16,00,13,14.90
2017,07,16,00,14,14.90
2017,07,16,00,15,14.90
2017,07,16,00,16,14.90
2017,07,16,00,17,14.90
2017,07,16,00,18,14.90
2017,07,16,00,19,14.90
2017,07,16,00,20,14.80
2017,07,16,00,21,14.80
2017,07,16,00,22,14.80
2017,07,16,00,23,14.80
2017,07,16,00,24,14.80
2017,07,16,00,25,14.80
2017,07,16,00,26,14.80
2017,07,16,00,27,14.80
2017,07,16,00,28,14.80
2017,07,16,00,29,14.80
2017,07,16,00,30,14.80
2017,07,16,00,31,14.70
2017,07,16,00,32,14.70
2017,07,16,00,33,14.70
2017,07,16,00,34,14.70
2017,07,16,00,35,14.70
2017,07,16,00,36,14.70
2017,07,16,00,37,14.70
2017,07,16,00,38,14.70
2017,07,16,00,39,14.70
2017,07,16,00,40,14.70
2017,07,16,00,41,14.70
2017,07,16,00,42,14.70
2017,07,16,00,43,14.70
2017,07,16,00,44,14.70
2017,07,16,00,45,14.70
2017,07,16,00,46,14.70
2017,07,16,00,47,14.70
2017,07,16,00,48,14.70
2017,07,16,00,49,14.70
2017,07,16,00,50,14.70
2017,07,16,00,51,14.70
2017,07,16,00,52,14.60
2017,07,16,00,53,14.60
2017,07,16,00,54,14.60
2017,07,16,00,55,14.60
2017,07,16,00,56,14.60
2017,07,16,00,57,14.60
2017,07,16,00,58,14.60
2017,07,16,00,59,14.60
2017,07,16,01,00,14.60
2017,07,16,01,01,14.50
2017,07,16,01,02,14.50
2017,07,16,01,03,14.50
2017,07,16,01,04,14.50
2017,07,16,01,05,14.40
2017,07,16,01,06,14.40
2017,07,16,01,07,14.40
2017,07,16,01,08,14.40
2017,07,16,01,09,14.40
2017,07,16,01,10,14.40
2017,07,16,01,11,14.40
2017,07,16,01,12,14.30
2017,07,16,01,13,14.30
2017,07,16,01,14,14.30
2017,07,16,01,15,14.30
2017,07,16,01,16,14.30
2017,07,16,01,17,14.30
2017,07,16,01,18,14.20
2017,07,16,01,19,14.20
2017,07,16,01,20,14.20
2017,07,16,01,21,14.20
2017,07,16,01,22,14.20
2017,07,16,01,23,14.20
2017,07,16,01,24,14.10
2017,07,16,01,25,14.10
2017,07,16,01,26,14.10
2017,07,16,01,27,14.10
2017,07,16,01,28,14.10
2017,07,16,01,29,14.10
2017,07,16,01,30,14.10
2017,07,16,01,31,14.10
2017,07,16,01,32,14.10
2017,07,16,01,33,14.10
2017,07,16,01,34,14.10
2017,07,16,01,35,14.10
2017,07,16,01,36,14.10
2017,07,16,01,37,14.10
2017,07,16,01,38,14.00
2017,07,16,01,39,14.00
2017,07,16,01,40,14.00
2017,07,16,01,41,14.00
2017,07,16,01,42,14.00
2017,07,16,01,43,14.00
2017,07,16,01,44,14.00
2017,07,16,01,45,14.00
2017,07,16,01,46,14.00
2017,07,16,01,47,14.00
2017,07,16,01,48,14.00
2017,07,16,01,49,14.00
2017,07,16,01,50,14.00
2017,07,16,01,51,14.00
2017,07,16,01,52,14.00
2017,07,16,01,53,14.00
2017,07,16,01,54,14.10
2017,07,16,01,55,14.10
2017,07,16,01,56,14.10
2017,07,16,01,57,14.10
2017,07,16,01,58,14.10
2017,07,16,01,59,14.10
2017,07,16,02,00,14.10
2017,07,16,02,01,14.10
2017,07,16,02,02,14.10
2017,07,16,02,03,14.10
2017,07,16,02,04,14.10
2017,07,16,02,05,14.10
2017,07,16,02,06,14.10
2017,07,16,02,07,14.10
2017,07,16,02,08,14.20
2017,07,16,02,09,14.10
2017,07,16,02,10,14.20
2017,07,16,02,11,14.20
2017,07,16,02,12,14.20
2017,07,16,02,13,14.20
2017,07,16,02,14,14.20
2017,07,16,02,15,14.20
2017,07,16,02,16,14.20
2017,07,16,02,17,14.20
2017,07,16,02,18,14.20
2017,07,16,02,19,14.20
2017,07,16,02,20,14.20
2017,07,16,02,21,14.20
2017,07,16,02,22,14.20
2017,07,16,02,23,14.20
2017,07,16,02,24,14.20
2017,07,16,02,25,14.20
2017,07,16,02,26,14.20
2017,07,16,02,27,14.20
2017,07,16,02,28,14.20
2017,07,16,02,29,14.20
2017,07,16,02,30,14.20
2017,07,16,02,31,14.20
2017,07,16,02,32,14.20
2017,07,16,02,33,14.20
2017,07,16,02,34,14.20
2017,07,16,02,35,14.20
2017,07,16,02,36,14.20
2017,07,16,02,37,14.20
2017,07,16,02,38,14.20
2017,07,16,02,39,14.20
2017,07,16,02,40,14.20
2017,07,16,02,41,14.20
2017,07,16,02,42,14.20
2017,07,16,02,43,14.20
2017,07,16,02,44,14.20
2017,07,16,02,45,14.20
2017,07,16,02,46,14.20
2017,07,16,02,47,14.20
2017,07,16,02,48,14.20
2017,07,16,02,49,14.20
2017,07,16,02,50,14.20
2017,07,16,02,51,14.20
2017,07,16,02,52,14.20
2017,07,16,02,53,14.20
2017,07,16,02,54,14.20
2017,07,16,02,55,14.20
2017,07,16,02,56,14.20
2017,07,16,02,57,14.20
2017,07,16,02,58,14.20
2017,07,16,02,59,14.20
2017,07,16,03,00,14.20
2017,07,16,03,01,14.20
2017,07,16,03,02,14.20
2017,07,16,03,03,14.20
2017,07,16,03,04,14.20
2017,07,16,03,05,14.20
2017,07,16,03,06,14.20
2017,07,16,03,07,14.20
2017,07,16,03,08,14.20
2017,07,16,03,09,14.10
2017,07,16,03,10,14.10
2017,07,16,03,11,14.10
2017,07,16,03,12,14.10
2017,07,16,03,13,14.10
2017,07,16,03,14,14.10
2017,07,16,03,15,14.10
2017,07,16,03,16,14.10
2017,07,16,03,17,14.10
2017,07,16,03,18,14.10
2017,07,16,03,19,14.10
2017,07,16,03,20,14.00
2017,07,16,03,21,14.00
2017,07,16,03,22,14.00
2017,07,16,03,23,14.00
2017,07,16,03,24,14.00
2017,07,16,03,25,14.00
2017,07,16,03,26,14.00
2017,07,16,03,27,13.90
2017,07,16,03,28,13.90
2017,07,16,03,29,13.90
2017,07,16,03,30,13.90
2017,07,16,03,31,13.90
2017,07,16,03,32,13.90
2017,07,16,03,33,13.90
2017,07,16,03,34,13.90
2017,07,16,03,35,13.90
2017,07,16,03,36,13.90
2017,07,16,03,37,13.80
2017,07,16,03,38,13.80
2017,07,16,03,39,13.80
2017,07,16,03,40,13.80
2017,07,16,03,41,13.80
2017,07,16,03,42,13.80
2017,07,16,03,43,13.70
2017,07,16,03,44,13.70
2017,07,16,03,45,13.70
2017,07,16,03,46,13.70
2017,07,16,03,47,13.70
2017,07,16,03,48,13.70
2017,07,16,03,49,13.70
2017,07,16,03,50,13.70
2017,07,16,03,51,13.70
2017,07,16,03,52,13.70
2017,07,16,03,53,13.70
2017,07,16,03,54,13.60
2017,07,16,03,55,13.60
2017,07,16,03,56,13.60
2017,07,16,03,57,13.60
2017,07,16,03,58,13.60
2017,07,16,03,59,13.60
2017,07,16,04,00,13.60
2017,07,16,04,01,13.60
2017,07,16,04,02,13.60
2017,07,16,04,03,13.60
2017,07,16,04,04,13.60
2017,07,16,04,05,13.60
2017,07,16,04,06,13.60
2017,07,16,04,07,13.60
2017,07,16,04,08,13.60
2017,07,16,04,09,13.60
2017,07,16,04,10,13.60
2017,07,16,04,11,13.60
2017,07,16,04,12,13.60
2017,07,16,04,13,13.60
2017,07,16,04,14,13.60
2017,07,16,04,15,13.60
2017,07,16,04,16,13.60
2017,07,16,04,17,13.60
2017,07,16,04,18,13.60
2017,07,16,04,19,13.60
2017,07,16,04,20,13.60
2017,07,16,04,21,13.50
2017,07,16,04,22,13.50
2017,07,16,04,23,13.50
2017,07,16,04,24,13.50
2017,07,16,04,25,13.50
2017,07,16,04,26,13.50
2017,07,16,04,27,13.50
2017,07,16,04,28,13.40
2017,07,16,04,29,13.40
2017,07,16,04,30,13.40
2017,07,16,04,31,13.40
2017,07,16,04,32,13.40
2017,07,16,04,33,13.40
2017,07,16,04,34,13.30
2017,07,16,04,35,13.30
2017,07,16,04,36,13.30
2017,07,16,04,37,13.30
2017,07,16,04,38,13.30
2017,07,16,04,39,13.30
2017,07,16,04,40,13.30
2017,07,16,04,41,13.30
2017,07,16,04,42,13.30
2017,07,16,04,43,13.30
2017,07,16,04,44,13.30
2017,07,16,04,45,13.30
2017,07,16,04,46,13.30
2017,07,16,04,47,13.20
2017,07,16,04,48,13.20
2017,07,16,04,49,13.20
2017,07,16,04,50,13.20
2017,07,16,04,51,13.20
2017,07,16,04,52,13.20
2017,07,16,04,53,13.20
2017,07,16,04,54,13.10
2017,07,16,04,55,13.10
2017,07,16,04,56,13.10
2017,07,16,04,57,13.10
2017,07,16,04,58,13.10
2017,07,16,04,59,13.10
2017,07,16,05,00,13.10
2017,07,16,05,01,13.10
2017,07,16,05,02,13.00
2017,07,16,05,03,13.00
2017,07,16,05,04,13.00
2017,07,16,05,05,13.00
2017,07,16,05,06,12.90
2017,07,16,05,07,12.90
2017,07,16,05,08,12.90
2017,07,16,05,09,12.90
2017,07,16,05,10,12.90
2017,07,16,05,11,12.90
2017,07,16,05,12,12.80
2017,07,16,05,13,12.80
2017,07,16,05,14,12.80
2017,07,16,05,15,12.80
2017,07,16,05,16,12.80
2017,07,16,05,17,12.80
2017,07,16,05,18,12.70
2017,07,16,05,19,12.70
2017,07,16,05,20,12.70
2017,07,16,05,21,12.70
2017,07,16,05,22,12.70
2017,07,16,05,23,12.70
2017,07,16,05,24,12.60
2017,07,16,05,25,12.60
2017,07,16,05,26,12.60
2017,07,16,05,27,12.60
2017,07,16,05,28,12.60
2017,07,16,05,29,12.50
2017,07,16,05,30,12.50
2017,07,16,05,31,12.50
2017,07,16,05,32,12.50
2017,07,16,05,33,12.40
2017,07,16,05,34,12.40
2017,07,16,05,35,12.40
2017,07,16,05,36,12.40
2017,07,16,05,37,12.40
2017,07,16,05,38,12.40
2017,07,16,05,39,12.40
2017,07,16,05,40,12.30
2017,07,16,05,41,12.30
2017,07,16,05,42,12.30
2017,07,16,05,43,12.30
2017,07,16,05,44,12.30
2017,07,16,05,45,12.30
2017,07,16,05,46,12.30
2017,07,16,05,47,12.30
2017,07,16,05,48,12.30
2017,07,16,05,49,12.30
2017,07,16,05,50,12.30
2017,07,16,05,51,12.30
2017,07,16,05,52,12.30
2017,07,16,05,53,12.30
2017,07,16,05,54,12.30
2017,07,16,05,55,12.30
2017,07,16,05,56,12.30
2017,07,16,05,57,12.30
2017,07,16,05,58,12.30
2017,07,16,05,59,12.30
2017,07,16,06,00,12.40
2017,07,16,06,01,12.40
2017,07,16,06,02,12.40
2017,07,16,06,03,12.40
2017,07,16,06,04,12.40
2017,07,16,06,05,12.40
2017,07,16,06,06,12.50
2017,07,16,06,07,12.50
2017,07,16,06,08,12.50
2017,07,16,06,09,12.60
2017,07,16,06,10,12.60
2017,07,16,06,11,12.60
2017,07,16,06,12,12.60
2017,07,16,06,13,12.70
2017,07,16,06,14,12.70
2017,07,16,06,15,12.80
2017,07,16,06,16,12.80
2017,07,16,06,17,12.80
2017,07,16,06,18,12.90
2017,07,16,06,19,12.90
2017,07,16,06,20,12.90
2017,07,16,06,21,13.00
2017,07,16,06,22,13.00
2017,07,16,06,23,13.10
2017,07,16,06,24,13.10
2017,07,16,06,25,13.10
2017,07,16,06,26,13.10
2017,07,16,06,27,13.20
2017,07,16,06,28,13.20
2017,07,16,06,29,13.20
2017,07,16,06,30,13.20
2017,07,16,06,31,13.30
2017,07,16,06,32,13.30
2017,07,16,06,33,13.30
2017,07,16,06,34,13.30
2017,07,16,06,35,13.30
2017,07,16,06,36,13.40
2017,07,16,06,37,13.40
2017,07,16,06,38,13.40
2017,07,16,06,39,13.50
2017,07,16,06,40,13.50
2017,07,16,06,41,13.50
2017,07,16,06,42,13.50
2017,07,16,06,43,13.60
2017,07,16,06,44,13.60
2017,07,16,06,45,13.60
2017,07,16,06,46,13.60
2017,07,16,06,47,13.60
2017,07,16,06,48,13.70
2017,07,16,06,49,13.70
2017,07,16,06,50,13.70
2017,07,16,06,51,13.70
2017,07,16,06,52,13.80
2017,07,16,06,53,13.80
2017,07,16,06,54,13.80
2017,07,16,06,55,13.80
2017,07,16,06,56,13.80
2017,07,16,06,57,13.90
2017,07,16,06,58,13.90
2017,07,16,06,59,13.90
2017,07,16,07,00,13.90
2017,07,16,07,01,14.00
2017,07,16,07,02,14.00
2017,07,16,07,03,14.00
2017,07,16,07,04,14.00
2017,07,16,07,05,14.10
2017,07,16,07,06,14.10
2017,07,16,07,07,14.10
2017,07,16,07,08,14.10
2017,07,16,07,09,14.10
2017,07,16,07,10,14.10
2017,07,16,07,11,14.20
2017,07,16,07,12,14.20
2017,07,16,07,13,14.20
2017,07,16,07,14,14.20
2017,07,16,07,15,14.20
2017,07,16,07,16,14.20
2017,07,16,07,17,14.30
2017,07,16,07,18,14.30
2017,07,16,07,19,14.30
2017,07,16,07,20,14.30
2017,07,16,07,21,14.40
2017,07,16,07,22,14.40
2017,07,16,07,23,14.40
2017,07,16,07,24,14.40
2017,07,16,07,25,14.50
2017,07,16,07,26,14.50
2017,07,16,07,27,14.50
2017,07,16,07,28,14.60
2017,07,16,07,29,14.60
2017,07,16,07,30,14.60
2017,07,16,07,31,14.60
2017,07,16,07,32,14.70
2017,07,16,07,33,14.70
2017,07,16,07,34,14.70
2017,07,16,07,35,14.70
2017,07,16,07,36,14.80
2017,07,16,07,37,14.80
2017,07,16,07,38,14.80
2017,07,16,07,39,14.90
2017,07,16,07,40,14.90
2017,07,16,07,41,14.90
2017,07,16,07,42,14.90
2017,07,16,07,43,15.00
2017,07,16,07,44,15.00
2017,07,16,07,45,15.10
2017,07,16,07,46,15.10
2017,07,16,07,47,15.10
2017,07,16,07,48,15.20
2017,07,16,07,49,15.20
2017,07,16,07,50,15.20
2017,07,16,07,51,15.20
2017,07,16,07,52,15.30
2017,07,16,07,53,15.30
2017,07,16,07,54,15.30
2017,07,16,07,55,15.30
2017,07,16,07,56,15.40
2017,07,16,07,57,15.40
2017,07,16,07,58,15.40
2017,07,16,07,59,15.40
2017,07,16,08,00,15.40
2017,07,16,08,01,15.50
2017,07,16,08,02,15.50
2017,07,16,08,03,15.50
2017,07,16,08,04,15.60
2017,07,16,08,05,15.60
2017,07,16,08,06,15.60
2017,07,16,08,07,15.60
2017,07,16,08,08,15.70
2017,07,16,08,09,15.70
2017,07,16,08,10,15.70
2017,07,16,08,11,15.70
2017,07,16,08,12,15.70
2017,07,16,08,13,15.80
2017,07,16,08,14,15.80
2017,07,16,08,15,15.80
2017,07,16,08,16,15.80
2017,07,16,08,17,15.80
2017,07,16,08,18,15.80
2017,07,16,08,19,15.90
2017,07,16,08,20,15.90
2017,07,16,08,21,15.90
2017,07,16,08,22,15.90
2017,07,16,08,23,16.00
2017,07,16,08,24,16.00
2017,07,16,08,25,16.00
2017,07,16,08,26,16.00
2017,07,16,08,27,16.10
2017,07,16,08,28,16.10
2017,07,16,08,29,16.10
2017,07,16,08,30,16.10
2017,07,16,08,31,16.10
2017,07,16,08,32,16.20
2017,07,16,08,33,16.20
2017,07,16,08,34,16.20
2017,07,16,08,35,16.20
2017,07,16,08,36,16.30
2017,07,16,08,37,16.30
2017,07,16,08,38,16.30
2017,07,16,08,39,16.30
2017,07,16,08,40,16.30
2017,07,16,08,41,16.30
2017,07,16,08,42,16.40
2017,07,16,08,43,16.40
2017,07,16,08,44,16.40
2017,07,16,08,45,16.40
2017,07,16,08,46,16.50
2017,07,16,08,47,16.50
2017,07,16,08,48,16.60
2017,07,16,08,49,16.60
2017,07,16,08,50,16.60
2017,07,16,08,51,16.70
2017,07,16,08,52,16.70
2017,07,16,08,53,16.70
2017,07,16,08,54,16.70
2017,07,16,08,55,16.70
2017,07,16,08,56,16.80
2017,07,16,08,57,16.80
2017,07,16,08,58,16.80
2017,07,16,08,59,16.80
2017,07,16,09,00,16.80
2017,07,16,09,01,16.80
2017,07,16,09,02,16.80
2017,07,16,09,03,16.90
2017,07,16,09,04,16.90
2017,07,16,09,05,16.90
2017,07,16,09,06,16.90
2017,07,16,09,07,17.00
2017,07,16,09,08,17.00
2017,07,16,09,09,17.00
2017,07,16,09,10,17.00
2017,07,16,09,11,17.10
2017,07,16,09,12,17.10
2017,07,16,09,13,17.10
2017,07,16,09,14,17.10
2017,07,16,09,15,17.20
2017,07,16,09,16,17.20
2017,07,16,09,17,17.20
2017,07,16,09,18,17.20
2017,07,16,09,19,17.30
2017,07,16,09,20,17.30
2017,07,16,09,21,17.30
2017,07,16,09,22,17.30
2017,07,16,09,23,17.40
2017,07,16,09,24,17.40
2017,07,16,09,25,17.50
2017,07,16,09,26,17.60
2017,07,16,09,27,17.60
2017,07,16,09,28,17.60
2017,07,16,09,29,17.70
2017,07,16,09,30,17.70
2017,07,16,09,31,17.80
2017,07,16,09,32,17.80
2017,07,16,09,33,17.90
2017,07,16,09,34,18.00
2017,07,16,09,35,18.00
2017,07,16,09,36,18.10
2017,07,16,09,37,18.10
2017,07,16,09,38,18.20
2017,07,16,09,39,18.20
2017,07,16,09,40,18.30
2017,07,16,09,41,18.30
2017,07,16,09,42,18.30
2017,07,16,09,43,18.30
2017,07,16,09,44,18.30
2017,07,16,09,45,18.30
2017,07,16,09,46,18.30
2017,07,16,09,47,18.40
2017,07,16,09,48,18.40
2017,07,16,09,49,18.40
2017,07,16,09,50,18.40
2017,07,16,09,51,18.40
2017,07,16,09,52,18.50
2017,07,16,09,53,18.60
2017,07,16,09,54,18.60
2017,07,16,09,55,18.70
2017,07,16,09,56,18.70
2017,07,16,09,57,18.70
2017,07,16,09,58,18.80
2017,07,16,09,59,18.80
2017,07,16,10,00,18.80
2017,07,16,10,01,18.80
2017,07,16,10,02,18.80
2017,07,16,10,03,18.80
2017,07,16,10,04,18.80
2017,07,16,10,05,18.80
2017,07,16,10,06,18.80
2017,07,16,10,07,18.80
2017,07,16,10,08,18.80
2017,07,16,10,09,18.80
2017,07,16,10,10,18.90
2017,07,16,10,11,18.90
2017,07,16,10,12,18.90
2017,07,16,10,13,18.90
2017,07,16,10,14,18.90
2017,07,16,10,15,18.90
2017,07,16,10,16,18.90
2017,07,16,10,17,18.90
2017,07,16,10,18,18.90
2017,07,16,10,19,18.90
2017,07,16,10,20,19.00
2017,07,16,10,21,19.00
2017,07,16,10,22,19.00
2017,07,16,10,23,19.00
2017,07,16,10,24,19.10
2017,07,16,10,25,19.10
2017,07,16,10,26,19.10
2017,07,16,10,27,19.10
2017,07,16,10,28,19.00
2017,07,16,10,29,19.00
2017,07,16,10,30,19.00
2017,07,16,10,31,19.00
2017,07,16,10,32,19.00
2017,07,16,10,33,19.00
2017,07,16,10,34,19.00
2017,07,16,10,35,19.00
2017,07,16,10,36,19.00
2017,07,16,10,37,19.10
2017,07,16,10,38,19.10
2017,07,16,10,39,19.10
2017,07,16,10,40,19.10
2017,07,16,10,41,19.10
2017,07,16,10,42,19.10
2017,07,16,10,43,19.10
2017,07,16,10,44,19.10
2017,07,16,10,45,19.10
2017,07,16,10,46,19.10
2017,07,16,10,47,19.10
2017,07,16,10,48,19.20
2017,07,16,10,49,19.20
2017,07,16,10,50,19.20
2017,07,16,10,51,19.20
2017,07,16,10,52,19.20
2017,07,16,10,53,19.20
2017,07,16,10,54,19.30
2017,07,16,10,55,19.30
2017,07,16,10,56,19.30
2017,07,16,10,57,19.30
2017,07,16,10,58,19.30
2017,07,16,10,59,19.30
2017,07,16,11,00,19.30
2017,07,16,11,01,19.30
2017,07,16,11,02,19.30
2017,07,16,11,03,19.30
2017,07,16,11,04,19.30
2017,07,16,11,05,19.30
2017,07,16,11,06,19.40
2017,07,16,11,07,19.40
2017,07,16,11,08,19.40
2017,07,16,11,09,19.40
2017,07,16,11,10,19.50
2017,07,16,11,11,19.50
2017,07,16,11,12,19.50
2017,07,16,11,13,19.50
2017,07,16,11,14,19.50
2017,07,16,11,15,19.50
2017,07,16,11,16,19.50
2017,07,16,11,17,19.50
2017,07,16,11,18,19.50
2017,07,16,11,19,19.50
2017,07,16,11,20,19.50
2017,07,16,11,21,19.50
2017,07,16,11,22,19.50
2017,07,16,11,23,19.50
2017,07,16,11,24,19.50
2017,07,16,11,25,19.50
2017,07,16,11,26,19.50
2017,07,16,11,27,19.50
2017,07,16,11,28,19.50
2017,07,16,11,29,19.40
2017,07,16,11,30,19.40
2017,07,16,11,31,19.40
2017,07,16,11,32,19.40
2017,07,16,11,33,19.40
2017,07,16,11,34,19.40
2017,07,16,11,35,19.40
2017,07,16,11,36,19.40
2017,07,16,11,37,19.40
2017,07,16,11,38,19.40
2017,07,16,11,39,19.40
2017,07,16,11,40,19.40
2017,07,16,11,41,19.40
2017,07,16,11,42,19.40
2017,07,16,11,43,19.40
2017,07,16,11,44,19.40
2017,07,16,11,45,19.40
2017,07,16,11,46,19.40
2017,07,16,11,47,19.40
2017,07,16,11,48,19.40
2017,07,16,11,49,19.50
2017,07,16,11,50,19.50
2017,07,16,11,51,19.50
2017,07,16,11,52,19.60
2017,07,16,11,53,19.60
2017,07,16,11,54,19.60
2017,07,16,11,55,19.60
2017,07,16,11,56,19.70
2017,07,16,11,57,19.70
2017,07,16,11,58,19.70
2017,07,16,11,59,19.70
2017,07,16,12,00,19.70
2017,07,16,12,01,19.70
2017,07,16,12,02,19.80
2017,07,16,12,03,19.80
2017,07,16,12,04,19.80
2017,07,16,12,05,19.80
2017,07,16,12,06,19.80
2017,07,16,12,07,19.90
2017,07,16,12,08,19.90
2017,07,16,12,09,19.90
2017,07,16,12,10,19.90
2017,07,16,12,11,19.90
2017,07,16,12,12,19.90
2017,07,16,12,13,19.90
2017,07,16,12,14,20.00
2017,07,16,12,15,20.00
2017,07,16,12,16,20.00
2017,07,16,12,17,20.00
2017,07,16,12,18,20.00
2017,07,16,12,19,20.00
2017,07,16,12,20,20.10
2017,07,16,12,21,20.10
2017,07,16,12,22,20.10
2017,07,16,12,23,20.10
2017,07,16,12,24,20.10
2017,07,16,12,25,20.10
2017,07,16,12,26,20.10
2017,07,16,12,27,20.10
2017,07,16,12,28,20.10
2017,07,16,12,29,20.10
2017,07,16,12,30,20.10
2017,07,16,12,31,20.10
2017,07,16,12,32,20.10
2017,07,16,12,33,20.10
2017,07,16,12,34,20.10
2017,07,16,12,35,20.10
2017,07,16,12,36,20.10
2017,07,16,12,37,20.10
2017,07,16,12,38,20.20
2017,07,16,12,39,20.20
2017,07,16,12,40,20.20
2017,07,16,12,41,20.20
2017,07,16,12,42,20.20
2017,07,16,12,43,20.20
2017,07,16,12,44,20.30
2017,07,16,12,45,20.30
2017,07,16,12,46,20.30
2017,07,16,12,47,20.30
2017,07,16,12,48,20.30
2017,07,16,12,49,20.30
2017,07,16,12,50,20.30
2017,07,16,12,51,20.40
2017,07,16,12,52,20.40
2017,07,16,12,53,20.40
2017,07,16,12,54,20.50
2017,07,16,12,55,20.60
2017,07,16,12,56,20.60
2017,07,16,12,57,20.70
2017,07,16,12,58,20.80
2017,07,16,12,59,20.80
2017,07,16,13,00,20.90
2017,07,16,13,01,21.00
2017,07,16,13,02,21.10
2017,07,16,13,03,21.30
2017,07,16,13,04,21.40
2017,07,16,13,05,21.50
2017,07,16,13,06,21.60
2017,07,16,13,07,21.70
2017,07,16,13,08,21.80
2017,07,16,13,09,21.90
2017,07,16,13,10,22.00
2017,07,16,13,11,22.00
2017,07,16,13,12,22.00
2017,07,16,13,13,22.10
2017,07,16,13,14,22.10
2017,07,16,13,15,22.20
2017,07,16,13,16,22.20
2017,07,16,13,17,22.20
2017,07,16,13,18,22.30
2017,07,16,13,19,22.30
2017,07,16,13,20,22.40
2017,07,16,13,21,22.40
2017,07,16,13,22,22.40
2017,07,16,13,23,22.40
2017,07,16,13,24,22.40
2017,07,16,13,25,22.40
2017,07,16,13,26,22.30
2017,07,16,13,27,22.30
2017,07,16,13,28,22.30
2017,07,16,13,29,22.30
2017,07,16,13,30,22.30
2017,07,16,13,31,22.30
2017,07,16,13,32,22.30
2017,07,16,13,33,22.20
2017,07,16,13,34,22.20
2017,07,16,13,35,22.20
2017,07,16,13,36,22.20
2017,07,16,13,37,22.20
2017,07,16,13,38,22.20
2017,07,16,13,39,22.20
2017,07,16,13,40,22.20
2017,07,16,13,41,22.20
2017,07,16,13,42,22.10
2017,07,16,13,43,22.10
2017,07,16,13,44,22.10
2017,07,16,13,45,22.00
2017,07,16,13,46,22.00
2017,07,16,13,47,21.90
2017,07,16,13,48,21.90
2017,07,16,13,49,21.80
2017,07,16,13,50,21.80
2017,07,16,13,51,21.80
2017,07,16,13,52,21.80
2017,07,16,13,53,21.80
2017,07,16,13,54,21.70
2017,07,16,13,55,21.70
2017,07,16,13,56,21.70
2017,07,16,13,57,21.60
2017,07,16,13,58,21.60
2017,07,16,13,59,21.60
2017,07,16,14,00,21.60
2017,07,16,14,01,21.70
2017,07,16,14,02,21.70
2017,07,16,14,03,21.70
2017,07,16,14,04,21.80
2017,07,16,14,05,21.80
2017,07,16,14,06,21.90
2017,07,16,14,07,21.90
2017,07,16,14,08,21.90
2017,07,16,14,09,22.00
2017,07,16,14,10,22.10
2017,07,16,14,11,22.10
2017,07,16,14,12,22.20
2017,07,16,14,13,22.20
2017,07,16,14,14,22.30
2017,07,16,14,15,22.30
2017,07,16,14,16,22.30
2017,07,16,14,17,22.40
2017,07,16,14,18,22.40
2017,07,16,14,19,22.50
2017,07,16,14,20,22.60
2017,07,16,14,21,22.70
2017,07,16,14,22,22.80
2017,07,16,14,23,22.90
2017,07,16,14,24,23.00
2017,07,16,14,25,23.10
2017,07,16,14,26,23.20
2017,07,16,14,27,23.30
2017,07,16,14,28,23.30
2017,07,16,14,29,23.30
2017,07,16,14,30,23.40
2017,07,16,14,31,23.40
2017,07,16,14,32,23.50
2017,07,16,14,33,23.50
2017,07,16,14,34,23.50
2017,07,16,14,35,23.50
2017,07,16,14,36,23.50
2017,07,16,14,37,23.50
2017,07,16,14,38,23.40
2017,07,16,14,39,23.40
2017,07,16,14,40,23.30
2017,07,16,14,41,23.30
2017,07,16,14,42,23.30
2017,07,16,14,43,23.30
2017,07,16,14,44,23.20
2017,07,16,14,45,23.20
2017,07,16,14,46,23.20
2017,07,16,14,47,23.20
2017,07,16,14,48,23.20
2017,07,16,14,49,23.30
2017,07,16,14,50,23.30
2017,07,16,14,51,23.30
2017,07,16,14,52,23.30
2017,07,16,14,53,23.20
2017,07,16,14,54,23.20
2017,07,16,14,55,23.30
2017,07,16,14,56,23.30
2017,07,16,14,57,23.30
2017,07,16,14,58,23.30
2017,07,16,14,59,23.40
2017,07,16,15,00,23.40
2017,07,16,15,01,23.50
2017,07,16,15,02,23.50
2017,07,16,15,03,23.60
2017,07,16,15,04,23.70
2017,07,16,15,05,23.70
2017,07,16,15,06,23.80
2017,07,16,15,07,23.80
2017,07,16,15,08,23.90
2017,07,16,15,09,23.90
2017,07,16,15,10,24.00
2017,07,16,15,11,24.10
2017,07,16,15,12,24.10
2017,07,16,15,13,24.10
2017,07,16,15,14,24.20
2017,07,16,15,15,24.20
2017,07,16,15,16,24.30
2017,07,16,15,17,24.30
2017,07,16,15,18,24.30
2017,07,16,15,19,24.30
2017,07,16,15,20,24.30
2017,07,16,15,21,24.30
2017,07,16,15,22,24.40
2017,07,16,15,23,24.40
2017,07,16,15,24,24.40
2017,07,16,15,25,24.50
2017,07,16,15,26,24.50
2017,07,16,15,27,24.60
2017,07,16,15,28,24.60
2017,07,16,15,29,24.70
2017,07,16,15,30,24.80
2017,07,16,15,31,24.80
2017,07,16,15,32,24.90
2017,07,16,15,33,24.90
2017,07,16,15,34,24.90
2017,07,16,15,35,25.00
2017,07,16,15,36,25.00
2017,07,16,15,37,24.90
2017,07,16,15,38,24.90
2017,07,16,15,39,24.90
2017,07,16,15,40,24.90
2017,07,16,15,41,24.80
2017,07,16,15,42,24.80
2017,07,16,15,43,24.70
2017,07,16,15,44,24.70
2017,07,16,15,45,24.70
2017,07,16,15,46,24.60
2017,07,16,15,47,24.60
2017,07,16,15,48,24.60
2017,07,16,15,49,24.60
2017,07,16,15,50,24.60
2017,07,16,15,51,24.60
2017,07,16,15,52,24.60
2017,07,16,15,53,24.60
2017,07,16,15,54,24.60
2017,07,16,15,55,24.60
2017,07,16,15,56,24.70
2017,07,16,15,57,24.70
2017,07,16,15,58,24.70
2017,07,16,15,59,24.80
2017,07,16,16,00,24.80
2017,07,16,16,01,24.80
2017,07,16,16,02,24.80
2017,07,16,16,03,24.70
2017,07,16,16,04,24.80
2017,07,16,16,05,24.80
2017,07,16,16,06,24.80
2017,07,16,16,07,24.80
2017,07,16,16,08,24.80
2017,07,16,16,09,24.80
2017,07,16,16,10,24.90
2017,07,16,16,11,24.90
2017,07,16,16,12,24.90
2017,07,16,16,13,25.00
2017,07,16,16,14,25.00
2017,07,16,16,15,25.00
2017,07,16,16,16,25.10
2017,07,16,16,17,25.10
2017,07,16,16,18,25.10
2017,07,16,16,19,25.20
2017,07,16,16,20,25.20
2017,07,16,16,21,25.20
2017,07,16,16,22,25.20
2017,07,16,16,23,25.30
2017,07,16,16,24,25.30
2017,07,16,16,25,25.30
2017,07,16,16,26,25.30
2017,07,16,16,27,25.30
2017,07,16,16,28,25.30
2017,07,16,16,29,25.30
2017,07,16,16,30,25.30
2017,07,16,16,31,25.30
2017,07,16,16,32,25.30
2017,07,16,16,33,25.20
2017,07,16,16,34,25.20
2017,07,16,16,35,25.20
2017,07,16,16,36,25.20
2017,07,16,16,37,25.30
2017,07,16,16,38,25.30
2017,07,16,16,39,25.30
2017,07,16,16,40,25.30
2017,07,16,16,41,25.30
2017,07,16,16,42,25.40
2017,07,16,16,43,25.40
2017,07,16,16,44,25.40
2017,07,16,16,45,25.40
2017,07,16,16,46,25.40
2017,07,16,16,47,25.40
2017,07,16,16,48,25.40
2017,07,16,16,49,25.40
2017,07,16,16,50,25.40
2017,07,16,16,51,25.40
2017,07,16,16,52,25.40
2017,07,16,16,53,25.40
2017,07,16,16,54,25.40
2017,07,16,16,55,25.40
2017,07,16,16,56,25.40
2017,07,16,16,57,25.40
2017,07,16,16,58,25.40
2017,07,16,16,59,25.40
2017,07,16,17,00,25.40
2017,07,16,17,01,25.40
2017,07,16,17,02,25.30
2017,07,16,17,03,25.30
2017,07,16,17,04,25.20
2017,07,16,17,05,25.10
2017,07,16,17,06,25.10
2017,07,16,17,07,25.00
2017,07,16,17,08,24.90
2017,07,16,17,09,24.90
2017,07,16,17,10,24.90
2017,07,16,17,11,24.90
2017,07,16,17,12,24.80
2017,07,16,17,13,24.80
2017,07,16,17,14,24.80
2017,07,16,17,15,24.70
2017,07,16,17,16,24.70
2017,07,16,17,17,24.70
2017,07,16,17,18,24.70
2017,07,16,17,19,24.70